This is the latest recevied weather packets stored in our database for station/object W6JCZ-13. If no packets are shown the sender has not sent any weather packets the latest 1 day(s).
| Time | Temp. | Humidity | Pressure | Rain* | Wind** | Luminosity | Snow |
|---|---|---|---|---|---|---|---|
| 1778042716 | 16.11° C | 78% | 1014.5 hPa | 0 mm | 0.45 m/s, 203° | - | - |
| 1778042117 | 16.11° C | 78% | 1014.4 hPa | 0 mm | 0.45 m/s, 158° | - | - |
| 1778040916 | 16.11° C | 78% | 1014.2 hPa | 0 mm | 0.45 m/s, 203° | - | - |
| 1778040317 | 16.11° C | 78% | 1014.1 hPa | 0 mm | 0.45 m/s, 203° | - | - |
| 1778039716 | 16.67° C | 78% | 1014.1 hPa | 0 mm | 0.45 m/s, 203° | - | - |
| 1778039116 | 16.67° C | 77% | 1014 hPa | 0 mm | 0.45 m/s, 203° | - | - |
| 1778038516 | 16.67° C | 77% | 1014.1 hPa | 0 mm | 0.45 m/s, 203° | - | - |
| 1778037916 | 16.67° C | 76% | 1013.8 hPa | 0 mm | 0.45 m/s, 180° | - | - |
| 1778037317 | 16.67° C | 76% | 1013.6 hPa | 0 mm | 0.45 m/s, 180° | - | - |
| 1778036716 | 17.22° C | 76% | 1013.6 hPa | 0 mm | 0.45 m/s, 203° | - | - |
| 1778036116 | 17.22° C | 75% | 1013.3 hPa | 0 mm | 0.89 m/s, 203° | - | - |
| 1778035516 | 17.22° C | 74% | 1013.3 hPa | 0 mm | 0.45 m/s, 180° | - | - |
| 1778034916 | 17.78° C | 74% | 1013.2 hPa | 0 mm | 0.45 m/s, 203° | - | - |
| 1778034316 | 17.78° C | 72% | 1013 hPa | 0 mm | 0.89 m/s, 203° | - | - |
| 1778033716 | 17.78° C | 72% | 1013 hPa | 0 mm | 0.45 m/s, 203° | - | - |
| 1778033116 | 18.33° C | 73% | 1013 hPa | 0 mm | 0.45 m/s, 180° | - | - |
| 1778032516 | 18.33° C | 71% | 1012.9 hPa | 0 mm | 0.89 m/s, 203° | - | - |
| 1778031916 | 18.33° C | 71% | 1013 hPa | 0 mm | 0.89 m/s, 203° | - | - |
| 1778031316 | 18.33° C | 71% | 1012.8 hPa | 0 mm | 0.89 m/s, 203° | - | - |
| 1778030716 | 18.33° C | 70% | 1012.9 hPa | 0 mm | 0.89 m/s, 203° | - | - |
| 1778030128 | 18.33° C | 70% | 1012.8 hPa | 0 mm | 0.89 m/s, 180° | - | - |
| 1778029516 | 18.89° C | 70% | 1012.7 hPa | 0 mm | 0.89 m/s, 135° | - | - |
| 1778028916 | 18.89° C | 70% | 1012.8 hPa | 0 mm | 0.45 m/s, 158° | - | - |
| 1778028316 | 18.89° C | 69% | 1012.7 hPa | 0 mm | 0.45 m/s, 225° | - | - |
| 1778027716 | 18.89° C | 68% | 1012.7 hPa | 0 mm | 0.45 m/s, 225° | - | - |
* Rain latest hour (hover to see other rain measurements)
** Current wind speed in m/s (hover to see current wind gust speed)